Regional Weather Roundup
Issued by NWS

Home | Current Version | Previous Version | Text Only | Print | Product List | Glossary Off
Versions: 1 2 3 4 5 6 7 8 9 10 11 12 13 14 15 16 17 18 19 20 21 22 23 24 25 26 27 28 29 30 31 32 33 34 35 36 37 38 39 40 41 42 43 44 45 46 47 48 49 50

294
ASUS45 KTFX 132010
RWRMT
MONTANA REGIONAL WEATHER ROUNDUP
NATIONAL WEATHER SERVICE GREAT FALLS MT
100 PM MST SAT FEB 13 2016

NOTE: "FAIR" INDICATES FEW OR NO CLOUDS BELOW 12000 FEET WITH NO
SIGNIFICANT WEATHER AND/OR OBSTRUCTIONS TO VISIBILITY.

MTZ001>007-043-132100-
WEST OF THE DIVIDE

CITY           SKY/WX    TMP DP  RH WIND       PRES   REMARKS
KALISPELL      LGT RAIN  40  31  70 S6        30.10R
MISSOULA       CLOUDY    42  33  70 NE5       30.16F
BUTTE          CLOUDY    36  21  54 N18G28    30.08R WCI  26
MULLAN PASS    SNOW      27  26  96 VRB6      30.12R VSB 1/2 WCI  20
ANACONDA         N/A     39  21  48 SW20G30   30.09R WCI  30
DEER LODGE       N/A     39  27  60 N6        30.11R
HAMILTON         N/A     45  21  39 W5G20     30.17R
PLAINS           N/A     46  30  54 S12       30.15S
$$

MTZ008-052>055-132100-
SOUTHWEST MONTANA

CITY           SKY/WX    TMP DP  RH WIND       PRES   REMARKS
BOZEMAN        CLOUDY    38  28  67 W10       30.07S WCI  31
DILLON         PTSUNNY   43  19  38 W24G30    30.10R
ENNIS          MOSUNNY   41  21  45 W12G17    30.15R
TWIN BRIDGES     N/A     40  18  41 SW14      30.08S
$$

MTZ009-010-012-014-046-048-049-054-132100-
EAST SLOPES AND CENTRAL MONTANA

CITY           SKY/WX    TMP DP  RH WIND       PRES   REMARKS
CUT BANK       PTSUNNY   47  21  35 W30G39    29.91R
GREAT FALLS    CLOUDY    47  22  37 W25G32    29.94S
MALMSTROM AFB  CLOUDY    47  21  36 W23G33    29.95S
HELENA         MOSUNNY   44  23  43 W28G36    30.03F
CHOTEAU          N/A     45  19  36 W13       29.95S
CONRAD           N/A     48  27  44 W29       29.94S
$$

MTZ011-013-016-021-045-047-050-051-132100-
NORTH CENTRAL MONTANA

CITY           SKY/WX    TMP DP  RH WIND       PRES   REMARKS
HAVRE          CLOUDY    46  32  58 W17G29    29.85R
LEWISTOWN      CLOUDY    43  26  51 W31G43    29.90S
N BAR RANCH      N/A     45  23  42 NW23G39   29.90R
CHINOOK          N/A     46  28  49 W17G24    29.82R
$$

MTZ017>020-022>027-061-062-132100-
NORTHEAST MONTANA

CITY           SKY/WX    TMP DP  RH WIND       PRES   REMARKS
GLASGOW        CLOUDY    28  25  88 SW3       29.79S
JORDAN           N/A     40  34  79 NW14      29.83R
SIDNEY         CLOUDY    28  23  80 SE12      29.82F WCI  18
PLENTYWOOD       N/A     21  18  86 S12       29.81F WCI   9
POPLAR           N/A     28  27  93 NW3       29.81F
SCOBEY           N/A     22  11  62 SE7       29.76F WCI  14
$$

MTZ028>42-056>058-132100-
SOUTHCENTRAL AND SOUTHEAST MONTANA

CITY           SKY/WX    TMP DP  RH WIND       PRES   REMARKS
BAKER          CLOUDY    39  31  72 SE6       29.79F
BILLINGS       CLOUDY    40  32  73 SW15      29.94S
LIVINGSTON     MOSUNNY   40  29  64 W25G33    30.01S
MILES CITY     LGT RAIN  43  37  79 W13       29.84R
EKALAKA          N/A     41  30  65 SW3       29.77F
FORSYTH          N/A     39  39 100 W14       29.88R WCI  31
LAUREL           N/A     41  29  62 W18       29.94R
ROUNDUP          N/A     45  28  51 W20       29.82S
$$

REGIONAL REPORTS...DAKOTAS

CITY           SKY/WX    TMP DP  RH WIND       PRES   REMARKS
WILLISTON      CLOUDY    22  15  75 SE10      29.85F WCI  11
MINOT          FLURRIES  18   6  59 SE17G25   29.98F WCI   3
DICKINSON      CLOUDY    17  14  88 S13G22    29.87R FOG     WCI   4
BEACH          PTSUNNY   28  28 100 S10       29.84S WCI  19
CROSBY         LGT SNOW  18  14  86 S15       29.90S WCI   3
TIOGA          FLURRIES  14  14 100 S18       29.92F WCI  -3
WATFORD CITY   MIX PCPN  19  14  79 SE13      29.86F WCI   7
BISMARCK       FLURRIES  16   8  71 SE22G28   30.04F WCI  -2
GRAND FORKS    MOSUNNY    9  -2  61 S15       30.35F WCI  -8
FARGO          CLOUDY    11   0  61 SE14      30.35F WCI  -5
BUFFALO SD       N/A     29  26  89 S16       29.73F WCI  17
RAPID CITY     CLOUDY    49  32  52 S15       29.80F
$$

REGIONAL REPORTS...WYOMING/IDAHO/WASHINGTON

CITY           SKY/WX    TMP DP  RH WIND       PRES   REMARKS
GILLETTE       SUNNY     60  29  30 W14G20    29.76F
SHERIDAN         N/A     41  32  70 NW38      29.82R
BUFFALO WY     SUNNY     58  28  32 CALM      29.81F
CODY           PTSUNNY   43  28  56 W21G44    29.92R
YELLOWSTONE LA   N/A     28  21  75 W13G21    30.06R WCI  17
IDAHO FALLS    MOSUNNY   35  28  75 SW18G33   30.17F WCI  24
SALMON         CLOUDY    39  27  60 CALM      30.19S
BOISE          SUNNY     48  33  56 NW12      30.32F
SPOKANE        PTSUNNY   43  33  68 SW16      30.21S
$$

REGIONAL REPORTS...ALBERTA

CITY           SKY/WX    TMP DP  RH WIND       PRES   REMARKS
EDMONTON       SUNNY     37  27  65 W9        29.76S WCI  31
CALGARY        MOSUNNY   43  30  61 VRB5      29.84F
LETHBRIDGE     PTSUNNY   46  28  49 W3        29.91S
MEDICINE HAT   PTSUNNY   37  30  75 W8        29.86S WCI  31
WATERTON GATE    N/A     41  21  45 SW14G24     N/A
CARDSTON         N/A     46  19  34 W21G30      N/A
MILK RIVER       N/A     48  21  34 NW29G39     N/A
ONEFOUR          N/A     39  30  70 NW28        N/A  WCI  28
$$

REGIONAL REPORTS...SASKATCHEWAN

CITY           SKY/WX    TMP DP  RH WIND       PRES   REMARKS
SWIFT CURRENT  LGT SNOW  25  25 100 NW26G32   29.69R WCI   9
REGINA         CLOUDY    19  14  79 SE21G32   29.78F WCI   3
SASKATOON      CLOUDY    19  16  86 E6        29.79F WCI  11
CYPRESS HILLS    N/A     28  27  93 NW10G21     N/A  WCI  19
VAL MARIE        N/A     25  23  93 SW10        N/A  WCI  15
ROCKGLEN         N/A     25  23  93 S13         N/A  WCI  13
ASSINIBOIA       N/A     37  30  75 W14         N/A  WCI  29
$$




USA.gov is the U.S. government's official web portal to all federal, state and local government web resources and services.